Location: Bourguignon
(49.5441°N, 3.1585°E)
Time: 07:48:02
(UTC+00:00)

Cosmos 2279 Rocket - Pass Details

Date: 15 May 2026
Orbit: 963 x 978 km, 82.9° (Epoch: 6 June)

Event Time Altitude Azimuth Distance (km) Brightness Sun altitude
Exits shadow 22:16:39 31° 148° (SSE) 1,651 4.6 -18.7°
Maximum altitude 22:19:23 51° 91° (E) 1,219 4.3 -18.9°
Drops below altitude 10° 22:25:25 10° 18° (NNE) 2,739 7.1 -19.2°
Sets 22:28:00 0° 13° (NNE) 3,690 8.0 -19.4°
